Location: Newark
(0.5300°S, 127.4800°E)
Time: 21:13:21
(UTC+00:00)

Vanguard 3 - Pass Details

Date: 18 September 2019
Orbit: 508 x 3262 km, 33.3° (Epoch: 17 October)

Event Time Altitude Azimuth Distance (km) Brightness Sun altitude
Rises 19:06:38 0° 218° (SW) 3,580 - -34.4°
Reaches altitude 10° 19:08:52 10° 210° (SSW) 2,889 - -33.8°
Exits shadow 19:12:28 32° 187° (S) 2,084 9.0 -32.9°
Maximum altitude 19:15:48 45° 139° (SE) 1,990 9.2 -32.1°
Drops below altitude 10° 19:27:48 10° 71° (ENE) 4,941 12.0 -29.1°
Sets 19:32:54 0° 66° (ENE) 6,373 12.7 -27.8°
